Time,TemperatureF,DewpointF,PressureIn,WindDirection,WindDirectionDegrees,WindSpeedMPH,WindSpeedGustMPH,Humidity,HourlyPrecipIn,Conditions,Clouds,dailyrainin,SoftwareType,DateUTC
2013-08-30 00:01:00,68.9,67.4,21.99,SE,140,0.0,0.0,95,0.00,RA,OVC,0.00,WeatherDisplay:10.37,2013-08-30 04:01:00,
2013-08-30 00:02:00,68.9,67.4,21.99,SE,140,0.0,0.0,95,0.00,RA,OVC,0.00,WeatherDisplay:10.37,2013-08-30 04:02:00,
2013-08-30 00:03:00,68.8,67.3,21.99,SE,140,0.0,0.0,95,0.00,RA,OVC,0.00,WeatherDisplay:10.37,2013-08-30 04:03:00,
2013-08-30 00:08:00,68.7,67.2,21.99,SE,140,0.0,0.0,95,0.00,RA,OVC,0.00,WeatherDisplay:10.37,2013-08-30 04:08:00,
2013-08-30 00:13:00,68.7,66.9,21.99,SE,138,0.0,0.0,94,0.00,,OVC,0.00,WeatherDisplay:10.37,2013-08-30 04:13:00,
2013-08-30 00:18:00,68.7,67.2,21.99,SE,138,0.0,0.0,95,0.00,,OVC,0.00,WeatherDisplay:10.37,2013-08-30 04:18:00,
2013-08-30 00:23:00,68.6,66.8,21.99,SE,139,0.0,0.0,94,0.00,,OVC,0.00,WeatherDisplay:10.37,2013-08-30 04:23:00,
2013-08-30 00:28:00,68.5,66.7,21.99,SE,139,1.1,0.0,94,0.00,,OVC,0.00,WeatherDisplay:10.37,2013-08-30 04:28:00,
2013-08-30 00:33:00,68.4,66.6,21.99,SE,139,0.0,0.0,94,0.00,,OVC,0.00,WeatherDisplay:10.37,2013-08-30 04:33:00,
2013-08-30 00:38:00,68.4,66.9,21.99,SE,139,0.0,0.0,95,0.00,,OVC,0.00,WeatherDisplay:10.37,2013-08-30 04:38:00,
2013-08-30 00:43:00,68.3,66.8,21.99,SE,139,0.0,0.0,95,0.00,,OVC,0.00,WeatherDisplay:10.37,2013-08-30 04:43:00,
2013-08-30 00:48:00,68.3,66.8,21.99,SE,142,0.0,0.0,95,0.00,,OVC,0.00,WeatherDisplay:10.37,2013-08-30 04:48:00,
2013-08-30 00:53:00,68.3,66.8,21.99,SSE,151,0.0,0.0,95,0.00,,OVC,0.00,WeatherDisplay:10.37,2013-08-30 04:53:00,
2013-08-30 00:58:00,68.4,66.9,21.99,SSE,151,0.0,0.0,95,0.00,,OVC,0.00,WeatherDisplay:10.37,2013-08-30 04:58:00,
2013-08-30 01:03:00,68.5,67.0,21.99,SSE,153,0.0,0.0,95,0.00,,OVC,0.00,WeatherDisplay:10.37,2013-08-30 05:03:00,
2013-08-30 01:08:00,68.6,67.1,21.99,West,277,1.1,1.1,95,0.00,,OVC,0.00,WeatherDisplay:10.37,2013-08-30 05:08:00,
2013-08-30 01:13:00,68.7,67.2,21.99,West,277,1.1,0.0,95,0.00,,OVC,0.00,WeatherDisplay:10.37,2013-08-30 05:13:00,
2013-08-30 01:18:00,68.7,67.2,21.99,West,277,0.0,0.0,95,0.00,,OVC,0.00,WeatherDisplay:10.37,2013-08-30 05:18:00,
2013-08-30 01:23:00,68.6,67.1,21.99,West,277,1.1,1.1,95,0.00,,OVC,0.00,WeatherDisplay:10.37,2013-08-30 05:23:00,
2013-08-30 01:28:00,68.6,67.1,21.99,SE,139,1.1,1.1,95,0.00,,OVC,0.00,WeatherDisplay:10.37,2013-08-30 05:28:00,
2013-08-30 01:33:00,68.6,67.1,21.99,SE,139,1.1,1.1,95,0.00,,OVC,0.00,WeatherDisplay:10.37,2013-08-30 05:33:00,
2013-08-30 01:38:00,68.6,67.1,21.99,NNE,16,1.1,1.1,95,0.00,,OVC,0.00,WeatherDisplay:10.37,2013-08-30 05:38:00,
2013-08-30 01:43:00,68.6,67.1,21.99,NW,319,3.5,3.5,95,0.00,,OVC,0.00,WeatherDisplay:10.37,2013-08-30 05:43:00,
2013-08-30 01:48:00,68.6,67.1,21.99,NW,319,0.0,0.0,95,0.00,,OVC,0.00,WeatherDisplay:10.37,2013-08-30 05:48:00,
2013-08-30 01:53:00,68.5,67.0,21.99,NW,319,1.1,0.0,95,0.00,,OVC,0.00,WeatherDisplay:10.37,2013-08-30 05:53:00,
2013-08-30 01:58:00,68.5,67.0,21.99,NW,319,0.0,0.0,95,0.00,,OVC,0.00,WeatherDisplay:10.37,2013-08-30 05:58:00,
2013-08-30 02:03:00,68.5,67.0,21.99,West,279,0.0,0.0,95,0.00,,OVC,0.00,WeatherDisplay:10.37,2013-08-30 06:03:00,
2013-08-30 02:08:00,68.5,67.0,21.99,West,281,0.0,0.0,95,0.00,,OVC,0.00,WeatherDisplay:10.37,2013-08-30 06:08:00,
2013-08-30 02:13:00,68.5,67.0,21.99,West,281,0.0,0.0,95,0.00,,OVC,0.00,WeatherDisplay:10.37,2013-08-30 06:13:00,
2013-08-30 02:18:00,68.6,67.1,21.99,West,281,1.1,0.0,95,0.00,,OVC,0.00,WeatherDisplay:10.37,2013-08-30 06:18:00,
2013-08-30 02:23:00,68.6,67.1,21.99,West,281,0.0,0.0,95,0.00,,OVC,0.00,WeatherDisplay:10.37,2013-08-30 06:23:00,
2013-08-30 02:28:00,68.6,67.1,21.99,West,281,1.1,0.0,95,0.00,,OVC,0.00,WeatherDisplay:10.37,2013-08-30 06:28:00,
2013-08-30 02:33:00,68.6,67.1,21.99,West,281,0.0,0.0,95,0.00,,OVC,0.00,WeatherDisplay:10.37,2013-08-30 06:33:00,
2013-08-30 02:38:00,68.6,67.1,21.99,West,280,1.1,1.1,95,0.00,,OVC,0.00,WeatherDisplay:10.37,2013-08-30 06:38:00,
2013-08-30 02:43:00,68.5,67.0,21.99,West,280,0.0,0.0,95,0.00,,OVC,0.00,WeatherDisplay:10.37,2013-08-30 06:43:00,
2013-08-30 02:48:00,68.5,67.0,21.99,West,278,0.0,0.0,95,0.00,,OVC,0.00,WeatherDisplay:10.37,2013-08-30 06:48:00,
2013-08-30 02:53:00,68.4,66.9,21.99,ESE,105,0.0,0.0,95,0.00,,OVC,0.00,WeatherDisplay:10.37,2013-08-30 06:53:00,
2013-08-30 02:58:00,68.3,66.8,21.99,WNW,288,1.1,0.0,95,0.00,,OVC,0.00,WeatherDisplay:10.37,2013-08-30 06:58:00,
2013-08-30 03:03:00,68.3,66.8,21.99,WNW,288,0.0,0.0,95,0.00,,OVC,0.00,WeatherDisplay:10.37,2013-08-30 07:03:00,
2013-08-30 03:08:00,68.2,66.7,21.99,WNW,288,0.0,0.0,95,0.00,,OVC,0.00,WeatherDisplay:10.37,2013-08-30 07:08:00,
2013-08-30 03:13:00,68.2,66.7,21.99,WNW,288,0.0,0.1,95,0.00,,OVC,0.00,WeatherDisplay:10.37,2013-08-30 07:13:00,
2013-08-30 03:18:00,68.1,66.6,21.99,WNW,288,0.0,0.0,95,0.00,,OVC,0.00,WeatherDisplay:10.37,2013-08-30 07:18:00,
2013-08-30 03:23:00,68.1,66.6,21.99,WNW,288,0.0,0.0,95,0.00,,OVC,0.00,WeatherDisplay:10.37,2013-08-30 07:23:00,
2013-08-30 03:28:00,68.0,66.5,21.99,WNW,288,0.0,0.0,95,0.00,,OVC,0.00,WeatherDisplay:10.37,2013-08-30 07:28:00,
2013-08-30 03:33:00,67.9,66.4,21.99,WNW,288,0.0,0.0,95,0.00,,OVC,0.00,WeatherDisplay:10.37,2013-08-30 07:33:00,
2013-08-30 03:38:00,67.9,66.4,21.99,WNW,285,1.1,0.0,95,0.00,,OVC,0.00,WeatherDisplay:10.37,2013-08-30 07:38:00,
2013-08-30 03:43:00,67.6,66.1,21.99,WNW,285,0.0,0.0,95,0.00,,OVC,0.00,WeatherDisplay:10.37,2013-08-30 07:43:00,
2013-08-30 03:48:00,67.6,66.1,21.99,WNW,285,0.0,0.0,95,0.00,,OVC,0.00,WeatherDisplay:10.37,2013-08-30 07:48:00,
2013-08-30 03:53:00,67.5,66.0,21.99,South,171,2.3,2.3,95,0.00,,OVC,0.00,WeatherDisplay:10.37,2013-08-30 07:53:00,
2013-08-30 03:58:00,67.4,65.9,21.99,SSE,156,1.1,0.0,95,0.00,,OVC,0.00,WeatherDisplay:10.37,2013-08-30 07:58:00,
2013-08-30 04:03:00,67.3,65.8,21.99,SSE,156,0.0,0.2,95,0.00,,OVC,0.00,WeatherDisplay:10.37,2013-08-30 08:03:00,
2013-08-30 04:08:00,67.2,65.7,21.99,SSE,157,0.0,0.0,95,0.00,,OVC,0.00,WeatherDisplay:10.37,2013-08-30 08:08:00,
2013-08-30 04:13:00,67.2,65.7,21.99,SSE,157,0.0,0.0,95,0.00,,OVC,0.00,WeatherDisplay:10.37,2013-08-30 08:13:00,
2013-08-30 04:18:00,67.1,65.6,21.99,SSE,157,0.0,0.0,95,0.00,,OVC,0.00,WeatherDisplay:10.37,2013-08-30 08:18:00,
2013-08-30 04:23:00,67.1,65.6,21.99,SSE,157,0.0,0.0,95,0.00,,OVC,0.00,WeatherDisplay:10.37,2013-08-30 08:23:00,
2013-08-30 04:28:00,67.0,65.5,21.99,SSE,157,0.0,0.0,95,0.00,,OVC,0.00,WeatherDisplay:10.37,2013-08-30 08:28:00,
2013-08-30 04:33:00,66.9,65.4,21.99,SSE,156,0.0,0.0,95,0.00,,OVC,0.00,WeatherDisplay:10.37,2013-08-30 08:33:00,
2013-08-30 04:38:00,66.9,65.4,21.99,SSE,156,0.0,0.0,95,0.00,,OVC,0.00,WeatherDisplay:10.37,2013-08-30 08:38:00,
2013-08-30 04:43:00,66.8,65.3,21.99,SSE,156,0.0,0.0,95,0.00,,OVC,0.00,WeatherDisplay:10.37,2013-08-30 08:43:00,
2013-08-30 04:48:00,66.8,65.3,21.99,SSE,156,0.0,0.0,95,0.00,,OVC,0.00,WeatherDisplay:10.37,2013-08-30 08:48:00,
2013-08-30 04:53:00,66.8,65.3,21.99,SSE,157,0.0,0.0,95,0.00,,OVC,0.00,WeatherDisplay:10.37,2013-08-30 08:53:00,
2013-08-30 04:58:00,66.7,65.2,21.99,West,259,0.0,0.3,95,0.00,,OVC,0.00,WeatherDisplay:10.37,2013-08-30 08:58:00,
2013-08-30 05:03:00,66.7,65.2,21.99,West,259,0.0,0.0,95,0.00,,OVC,0.00,WeatherDisplay:10.37,2013-08-30 09:03:00,
2013-08-30 05:08:00,66.8,65.3,21.99,West,259,0.0,0.0,95,0.00,,OVC,0.00,WeatherDisplay:10.37,2013-08-30 09:08:00,
2013-08-30 05:13:00,66.7,65.2,21.99,West,259,0.0,0.0,95,0.00,,OVC,0.00,WeatherDisplay:10.37,2013-08-30 09:13:00,
2013-08-30 05:18:00,66.8,65.3,21.99,West,259,0.0,0.2,95,0.00,,OVC,0.00,WeatherDisplay:10.37,2013-08-30 09:18:00,
2013-08-30 05:23:00,66.8,65.3,21.99,West,259,0.0,0.0,95,0.00,,OVC,0.00,WeatherDisplay:10.37,2013-08-30 09:23:00,
2013-08-30 05:28:00,66.8,65.3,21.99,West,259,0.0,0.0,95,0.00,,OVC,0.00,WeatherDisplay:10.37,2013-08-30 09:28:00,
2013-08-30 05:33:00,66.8,65.3,21.99,West,259,0.0,0.0,95,0.00,,OVC,0.00,WeatherDisplay:10.37,2013-08-30 09:33:00,
2013-08-30 05:38:00,66.8,65.3,21.99,West,259,0.0,0.0,95,0.00,,OVC,0.00,WeatherDisplay:10.37,2013-08-30 09:38:00,
2013-08-30 05:43:00,66.7,65.2,21.99,West,259,0.0,0.0,95,0.00,,OVC,0.00,WeatherDisplay:10.37,2013-08-30 09:43:00,
2013-08-30 05:48:00,66.7,65.2,21.99,West,259,0.0,0.0,95,0.00,,OVC,0.00,WeatherDisplay:10.37,2013-08-30 09:48:00,
2013-08-30 05:53:00,66.6,65.1,21.99,West,259,0.0,0.0,95,0.00,,OVC,0.00,WeatherDisplay:10.37,2013-08-30 09:53:00,
2013-08-30 05:58:00,66.5,65.0,21.99,West,259,0.0,0.0,95,0.00,,OVC,0.00,WeatherDisplay:10.37,2013-08-30 09:58:00,
2013-08-30 06:03:00,66.5,65.0,21.99,West,259,0.0,0.0,95,0.00,,OVC,0.00,WeatherDisplay:10.37,2013-08-30 10:03:00,
2013-08-30 06:08:00,66.5,65.0,21.99,West,259,0.0,0.0,95,0.00,,OVC,0.00,WeatherDisplay:10.37,2013-08-30 10:08:00,
2013-08-30 06:13:00,66.5,65.0,21.99,West,259,0.0,0.0,95,0.00,,OVC,0.00,WeatherDisplay:10.37,2013-08-30 10:13:00,
2013-08-30 06:18:00,66.5,65.0,21.99,West,259,0.0,0.0,95,0.00,,OVC,0.00,WeatherDisplay:10.37,2013-08-30 10:18:00,
2013-08-30 06:23:00,66.5,65.0,21.99,West,259,0.0,0.0,95,0.00,,OVC,0.00,WeatherDisplay:10.37,2013-08-30 10:23:00,
2013-08-30 06:28:00,66.6,65.1,21.99,West,259,0.0,0.0,95,0.00,,OVC,0.00,WeatherDisplay:10.37,2013-08-30 10:28:00,
2013-08-30 06:33:00,66.6,65.1,21.99,West,259,0.0,0.0,95,0.00,,OVC,0.00,WeatherDisplay:10.37,2013-08-30 10:33:00,
2013-08-30 06:38:00,66.6,65.1,21.99,West,259,0.0,0.0,95,0.00,,OVC,0.00,WeatherDisplay:10.37,2013-08-30 10:38:00,
2013-08-30 06:43:00,66.6,65.1,21.99,West,259,0.0,0.0,95,0.00,,OVC,0.00,WeatherDisplay:10.37,2013-08-30 10:43:00,
2013-08-30 06:48:00,66.6,65.1,21.99,West,259,0.0,0.0,95,0.00,,OVC,0.00,WeatherDisplay:10.37,2013-08-30 10:48:00,
2013-08-30 06:53:00,66.6,65.1,21.99,West,259,0.0,0.0,95,0.00,,OVC,0.00,WeatherDisplay:10.37,2013-08-30 10:53:00,
2013-08-30 06:58:00,66.6,65.1,21.99,West,259,0.0,0.0,95,0.00,,OVC,0.00,WeatherDisplay:10.37,2013-08-30 10:58:00,
2013-08-30 07:03:00,66.7,65.2,21.99,West,259,0.0,0.0,95,0.00,,OVC,0.00,WeatherDisplay:10.37,2013-08-30 11:03:00,
2013-08-30 07:08:00,66.7,65.2,21.99,West,259,1.1,0.0,95,0.00,,OVC,0.00,WeatherDisplay:10.37,2013-08-30 11:08:00,
2013-08-30 07:13:00,66.8,65.3,21.99,West,259,0.0,0.0,95,0.00,,OVC,0.00,WeatherDisplay:10.37,2013-08-30 11:13:00,
2013-08-30 07:18:00,66.8,65.3,21.99,West,259,0.0,0.0,95,0.00,,OVC,0.00,WeatherDisplay:10.37,2013-08-30 11:18:00,
2013-08-30 07:23:00,66.8,65.3,21.99,West,259,0.0,0.0,95,0.00,,OVC,0.00,WeatherDisplay:10.37,2013-08-30 11:23:00,
2013-08-30 07:28:00,66.8,65.3,21.99,West,259,0.0,0.0,95,0.00,,OVC,0.00,WeatherDisplay:10.37,2013-08-30 11:28:00,
2013-08-30 07:33:00,66.9,65.4,21.99,West,259,0.0,0.0,95,0.00,,OVC,0.00,WeatherDisplay:10.37,2013-08-30 11:33:00,
2013-08-30 07:38:00,67.0,65.5,21.99,West,259,0.0,0.0,95,0.00,,OVC,0.00,WeatherDisplay:10.37,2013-08-30 11:38:00,
2013-08-30 07:43:00,67.0,65.5,21.99,SSE,151,0.0,0.0,95,0.00,,OVC,0.00,WeatherDisplay:10.37,2013-08-30 11:43:00,
2013-08-30 07:48:00,67.0,65.5,21.99,SSE,151,0.0,0.0,95,0.00,,OVC,0.00,WeatherDisplay:10.37,2013-08-30 11:48:00,
2013-08-30 07:53:00,67.0,65.5,21.99,SSE,151,0.0,0.0,95,0.00,,OVC,0.00,WeatherDisplay:10.37,2013-08-30 11:53:00,
2013-08-30 07:58:00,67.0,65.5,21.99,SSE,151,0.0,0.0,95,0.00,,OVC,0.00,WeatherDisplay:10.37,2013-08-30 11:58:00,
2013-08-30 08:03:00,67.0,65.5,21.99,South,175,0.0,0.0,95,0.00,,OVC,0.00,WeatherDisplay:10.37,2013-08-30 12:03:00,
2013-08-30 08:08:00,67.0,65.5,21.99,South,175,0.0,0.0,95,0.00,,OVC,0.00,WeatherDisplay:10.37,2013-08-30 12:08:00,
2013-08-30 08:13:00,67.0,65.5,21.99,South,175,0.0,0.0,95,0.00,,OVC,0.00,WeatherDisplay:10.37,2013-08-30 12:13:00,
2013-08-30 08:18:00,67.2,65.7,21.99,South,175,0.0,0.0,95,0.00,,OVC,0.00,WeatherDisplay:10.37,2013-08-30 12:18:00,
2013-08-30 08:23:00,67.3,65.8,21.99,South,175,0.0,0.0,95,0.00,,OVC,0.00,WeatherDisplay:10.37,2013-08-30 12:23:00,
2013-08-30 08:28:00,67.4,65.9,21.99,South,175,0.0,0.0,95,0.00,,OVC,0.00,WeatherDisplay:10.37,2013-08-30 12:28:00,
2013-08-30 08:33:00,67.4,65.9,21.99,South,175,0.0,0.0,95,0.00,,OVC,0.00,WeatherDisplay:10.37,2013-08-30 12:33:00,
2013-08-30 08:38:00,67.5,66.0,21.99,South,175,0.0,0.0,95,0.00,,OVC,0.00,WeatherDisplay:10.37,2013-08-30 12:38:00,
2013-08-30 08:43:00,67.6,66.1,21.99,South,175,0.0,0.0,95,0.00,,OVC,0.00,WeatherDisplay:10.37,2013-08-30 12:43:00,
2013-08-30 08:48:00,67.7,66.2,21.99,South,175,0.0,0.0,95,0.00,,OVC,0.00,WeatherDisplay:10.37,2013-08-30 12:48:00,
2013-08-30 08:53:00,67.9,66.4,21.99,South,175,0.0,0.0,95,0.00,,OVC,0.00,WeatherDisplay:10.37,2013-08-30 12:53:00,
2013-08-30 08:58:00,68.1,66.6,21.99,South,175,0.0,0.0,95,0.00,,OVC,0.00,WeatherDisplay:10.37,2013-08-30 12:58:00,
2013-08-30 09:03:00,68.1,66.6,21.99,South,175,0.0,0.0,95,0.00,,OVC,0.00,WeatherDisplay:10.37,2013-08-30 13:03:00,
2013-08-30 09:08:00,68.0,66.5,21.99,South,175,0.0,0.0,95,0.00,,OVC,0.00,WeatherDisplay:10.37,2013-08-30 13:08:00,
2013-08-30 09:13:00,68.1,66.6,21.99,South,175,0.0,0.0,95,0.00,,OVC,0.00,WeatherDisplay:10.37,2013-08-30 13:13:00,
2013-08-30 09:18:00,68.3,66.8,21.99,SSE,152,0.0,0.0,95,0.00,,OVC,0.00,WeatherDisplay:10.37,2013-08-30 13:18:00,
2013-08-30 09:23:00,68.6,66.8,21.99,SSE,152,0.0,0.0,94,0.00,,OVC,0.00,WeatherDisplay:10.37,2013-08-30 13:23:00,
2013-08-30 09:28:00,68.8,67.0,21.99,SE,127,0.0,0.0,94,0.00,,OVC,0.00,WeatherDisplay:10.37,2013-08-30 13:28:00,
2013-08-30 09:33:00,69.1,67.3,21.99,SE,128,1.1,1.1,94,0.00,,OVC,0.00,WeatherDisplay:10.37,2013-08-30 13:33:00,
2013-08-30 09:38:00,69.3,67.5,29.52,SE,128,1.1,1.1,94,0.00,,OVC,0.00,WeatherDisplay:10.37,2013-08-30 13:38:00,
2013-08-30 09:43:00,69.5,67.4,21.99,SE,128,0.0,0.0,93,0.00,,OVC,0.00,WeatherDisplay:10.37,2013-08-30 13:43:00,
2013-08-30 09:48:00,69.8,67.7,21.99,SE,128,0.0,0.0,93,0.00,,OVC,0.00,WeatherDisplay:10.37,2013-08-30 13:48:00,
2013-08-30 09:53:00,69.8,67.7,21.99,SE,128,0.0,0.0,93,0.00,,OVC,0.00,WeatherDisplay:10.37,2013-08-30 13:53:00,
2013-08-30 09:58:00,69.7,67.3,21.99,SE,128,0.0,0.0,92,0.00,,OVC,0.00,WeatherDisplay:10.37,2013-08-30 13:58:00,
2013-08-30 10:03:00,69.8,67.4,21.99,East,98,0.0,0.0,92,0.00,,OVC,0.00,WeatherDisplay:10.37,2013-08-30 14:03:00,
2013-08-30 10:08:00,70.0,67.6,21.99,ESE,104,1.1,1.1,92,0.00,,OVC,0.00,WeatherDisplay:10.37,2013-08-30 14:08:00,
2013-08-30 10:13:00,69.9,67.2,21.99,SE,142,1.1,1.1,91,0.00,,OVC,0.00,WeatherDisplay:10.37,2013-08-30 14:13:00,
2013-08-30 10:18:00,70.0,67.3,21.99,SE,144,0.0,0.0,91,0.00,,OVC,0.00,WeatherDisplay:10.37,2013-08-30 14:18:00,
2013-08-30 10:23:00,70.1,67.3,21.99,SE,144,0.0,0.0,91,0.00,,OVC,0.00,WeatherDisplay:10.37,2013-08-30 14:23:00,
2013-08-30 10:28:00,70.3,67.5,21.99,SE,143,0.0,0.0,91,0.00,,OVC,0.00,WeatherDisplay:10.37,2013-08-30 14:28:00,
2013-08-30 10:33:00,70.5,67.7,21.99,SE,140,0.0,0.0,91,0.00,,OVC,0.00,WeatherDisplay:10.37,2013-08-30 14:33:00,
2013-08-30 10:38:00,70.7,67.9,21.99,SE,140,0.0,0.0,91,0.00,,OVC,0.00,WeatherDisplay:10.37,2013-08-30 14:38:00,
2013-08-30 10:43:00,70.8,67.7,21.99,SE,140,0.0,0.0,90,0.00,,OVC,0.00,WeatherDisplay:10.37,2013-08-30 14:43:00,
2013-08-30 10:48:00,71.1,68.0,21.99,SE,140,0.0,0.0,90,0.00,,OVC,0.00,WeatherDisplay:10.37,2013-08-30 14:48:00,
2013-08-30 10:54:00,71.3,68.2,21.99,SE,140,0.0,0.0,90,0.00,,OVC,0.00,WeatherDisplay:10.37,2013-08-30 14:54:00,
2013-08-30 10:59:00,71.2,67.8,21.99,SSW,209,2.3,2.3,89,0.00,,OVC,0.00,WeatherDisplay:10.37,2013-08-30 14:59:00,
2013-08-30 11:04:00,71.1,67.7,21.99,SSW,209,1.1,0.0,89,0.00,,OVC,0.00,WeatherDisplay:10.37,2013-08-30 15:04:00,
2013-08-30 11:09:00,71.2,67.5,21.99,SSW,208,1.1,1.1,88,0.00,,OVC,0.00,WeatherDisplay:10.37,2013-08-30 15:09:00,
2013-08-30 11:14:00,71.3,67.6,21.99,NW,314,0.0,0.0,88,0.00,,OVC,0.00,WeatherDisplay:10.37,2013-08-30 15:14:00,
2013-08-30 11:19:00,71.5,68.1,21.99,NW,314,0.0,0.0,89,0.00,,OVC,0.00,WeatherDisplay:10.37,2013-08-30 15:19:00,
2013-08-30 11:24:00,71.9,68.2,21.99,ENE,75,0.0,0.0,88,0.00,,OVC,0.00,WeatherDisplay:10.37,2013-08-30 15:24:00,
2013-08-30 11:29:00,72.4,68.3,21.99,East,96,0.0,0.0,87,0.00,,OVC,0.00,WeatherDisplay:10.37,2013-08-30 15:29:00,
2013-08-30 11:34:00,73.0,68.9,21.99,SE,142,2.3,2.3,87,0.00,,OVC,0.00,WeatherDisplay:10.37,2013-08-30 15:34:00,
2013-08-30 11:39:00,73.4,68.6,21.99,South,187,0.0,0.0,85,0.00,,OVC,0.00,WeatherDisplay:10.37,2013-08-30 15:39:00,
2013-08-30 11:44:00,73.6,68.5,21.99,SE,144,0.0,0.0,84,0.00,,OVC,0.00,WeatherDisplay:10.37,2013-08-30 15:44:00,
2013-08-30 11:49:00,73.9,68.1,21.99,ESE,122,2.3,2.3,82,0.00,,OVC,0.00,WeatherDisplay:10.37,2013-08-30 15:49:00,
2013-08-30 11:54:00,74.0,68.2,21.99,ESE,121,0.0,0.0,82,0.00,,OVC,0.00,WeatherDisplay:10.37,2013-08-30 15:54:00,
2013-08-30 11:59:00,73.9,68.4,21.99,ESE,121,0.0,0.0,83,0.00,,OVC,0.00,WeatherDisplay:10.37,2013-08-30 15:59:00,
2013-08-30 12:04:00,73.6,68.1,21.99,ESE,121,0.0,0.0,83,0.00,,OVC,0.00,WeatherDisplay:10.37,2013-08-30 16:04:00,
2013-08-30 12:09:00,73.3,68.2,21.99,SE,127,0.0,0.0,84,0.00,,OVC,0.00,WeatherDisplay:10.37,2013-08-30 16:09:00,
2013-08-30 12:14:00,73.0,67.9,21.99,SSE,153,1.1,0.0,84,0.00,,OVC,0.00,WeatherDisplay:10.37,2013-08-30 16:14:00,
2013-08-30 12:19:00,72.7,67.6,21.99,SSE,153,0.0,0.0,84,0.00,,OVC,0.00,WeatherDisplay:10.37,2013-08-30 16:19:00,
2013-08-30 12:24:00,72.3,67.5,21.99,SSW,212,3.5,3.5,85,0.00,,OVC,0.00,WeatherDisplay:10.37,2013-08-30 16:24:00,
2013-08-30 12:29:00,72.0,67.6,21.99,SSW,211,2.3,2.3,86,0.00,,OVC,0.00,WeatherDisplay:10.37,2013-08-30 16:29:00,
2013-08-30 12:34:00,72.0,67.9,21.99,SSE,168,0.0,0.1,87,0.00,,OVC,0.00,WeatherDisplay:10.37,2013-08-30 16:34:00,
2013-08-30 12:39:00,72.1,68.3,21.99,SSE,168,0.0,0.0,88,0.00,,OVC,0.00,WeatherDisplay:10.37,2013-08-30 16:39:00,
2013-08-30 12:44:00,72.5,68.4,21.99,SSE,168,0.0,0.0,87,0.00,,OVC,0.00,WeatherDisplay:10.37,2013-08-30 16:44:00,
2013-08-30 12:49:00,72.7,68.3,21.99,SSE,168,0.0,0.0,86,0.00,,OVC,0.00,WeatherDisplay:10.37,2013-08-30 16:49:00,
2013-08-30 12:54:00,72.7,68.3,21.99,SSE,168,1.1,0.0,86,0.00,,OVC,0.00,WeatherDisplay:10.37,2013-08-30 16:54:00,
2013-08-30 12:59:00,72.9,68.5,21.99,SSE,148,0.0,0.0,86,0.00,,OVC,0.00,WeatherDisplay:10.37,2013-08-30 16:59:00,
2013-08-30 13:04:00,73.0,68.2,29.52,SSE,148,0.0,0.0,85,0.00,,OVC,0.00,WeatherDisplay:10.37,2013-08-30 17:04:00,
2013-08-30 13:09:00,73.0,68.2,29.52,SSE,148,0.0,0.0,85,0.00,,OVC,0.00,WeatherDisplay:10.37,2013-08-30 17:09:00,
2013-08-30 13:14:00,73.0,68.2,29.52,SSE,148,0.0,0.0,85,0.00,,OVC,0.00,WeatherDisplay:10.37,2013-08-30 17:14:00,
2013-08-30 13:19:00,73.0,68.2,29.52,SSE,148,0.0,0.0,85,0.00,,OVC,0.00,WeatherDisplay:10.37,2013-08-30 17:19:00,
2013-08-30 13:24:00,73.0,68.2,29.52,SSE,148,0.0,0.0,85,0.00,,OVC,0.00,WeatherDisplay:10.37,2013-08-30 17:24:00,
2013-08-30 13:29:00,73.0,68.2,29.52,SSE,148,0.0,0.0,85,0.00,,OVC,0.00,WeatherDisplay:10.37,2013-08-30 17:29:00,
2013-08-30 13:34:00,73.0,68.2,29.52,SSE,148,0.0,0.0,85,0.00,,OVC,0.00,WeatherDisplay:10.37,2013-08-30 17:34:00,
2013-08-30 13:39:00,73.0,68.2,29.52,SSE,148,0.0,0.0,85,0.00,,OVC,0.00,WeatherDisplay:10.37,2013-08-30 17:39:00,
2013-08-30 13:44:00,73.0,68.2,29.52,SSE,148,0.0,0.0,85,0.00,,OVC,0.00,WeatherDisplay:10.37,2013-08-30 17:44:00,
2013-08-30 13:49:00,73.0,68.2,29.52,SSE,148,0.0,0.0,85,0.00,,OVC,0.00,WeatherDisplay:10.37,2013-08-30 17:49:00,
2013-08-30 13:54:00,73.0,68.2,29.52,SSE,148,0.0,0.0,85,0.00,,OVC,0.00,WeatherDisplay:10.37,2013-08-30 17:54:00,
2013-08-30 13:59:00,73.0,68.2,29.52,SSE,148,0.0,0.0,85,0.00,,OVC,0.00,WeatherDisplay:10.37,2013-08-30 17:59:00,
2013-08-30 14:04:00,73.0,68.2,29.52,SSE,148,0.0,0.0,85,0.00,,OVC,0.00,WeatherDisplay:10.37,2013-08-30 18:04:00,
2013-08-30 14:09:00,73.0,68.2,29.52,SSE,148,0.0,0.0,85,0.00,,OVC,0.00,WeatherDisplay:10.37,2013-08-30 18:09:00,
2013-08-30 14:14:00,73.0,68.2,29.52,SSE,148,0.0,0.0,85,0.00,,OVC,0.00,WeatherDisplay:10.37,2013-08-30 18:14:00,
2013-08-30 14:19:00,73.0,68.2,29.52,SSE,148,0.0,0.0,85,0.00,,OVC,0.00,WeatherDisplay:10.37,2013-08-30 18:19:00,
2013-08-30 14:24:00,73.0,68.2,29.52,SSE,148,0.0,0.0,85,0.00,,OVC,0.00,WeatherDisplay:10.37,2013-08-30 18:24:00,
2013-08-30 14:29:00,73.0,68.2,29.52,SSE,148,0.0,0.0,85,0.00,,OVC,0.00,WeatherDisplay:10.37,2013-08-30 18:29:00,
2013-08-30 14:34:00,73.0,68.2,29.52,SSE,148,0.0,0.0,85,0.00,,OVC,0.00,WeatherDisplay:10.37,2013-08-30 18:34:00,
2013-08-30 14:39:00,73.0,68.2,29.52,SSE,148,0.0,0.0,85,0.00,,OVC,0.00,WeatherDisplay:10.37,2013-08-30 18:39:00,
2013-08-30 14:44:00,73.0,68.2,29.52,SSE,148,0.0,0.0,85,0.00,,OVC,0.00,WeatherDisplay:10.37,2013-08-30 18:44:00,
2013-08-30 14:49:00,73.0,68.2,29.52,SSE,148,0.0,0.0,85,0.00,,OVC,0.00,WeatherDisplay:10.37,2013-08-30 18:49:00,
2013-08-30 14:54:00,73.0,68.2,29.52,SSE,148,0.0,0.0,85,0.00,,OVC,0.00,WeatherDisplay:10.37,2013-08-30 18:54:00,
2013-08-30 14:59:00,73.0,68.2,29.52,SSE,148,0.0,0.0,85,0.00,,OVC,0.00,WeatherDisplay:10.37,2013-08-30 18:59:00,
2013-08-30 15:04:00,73.0,68.2,29.52,SSE,148,0.0,0.0,85,0.00,,OVC,0.00,WeatherDisplay:10.37,2013-08-30 19:04:00,
2013-08-30 15:09:00,73.0,68.2,29.52,SSE,148,0.0,0.0,85,0.00,,OVC,0.00,WeatherDisplay:10.37,2013-08-30 19:09:00,
2013-08-30 15:14:00,73.0,68.2,29.52,SSE,148,0.0,0.0,85,0.00,,OVC,0.00,WeatherDisplay:10.37,2013-08-30 19:14:00,
2013-08-30 15:19:00,73.0,68.2,29.52,SSE,148,0.0,0.0,85,0.00,,OVC,0.00,WeatherDisplay:10.37,2013-08-30 19:19:00,
2013-08-30 15:24:00,73.0,68.2,29.52,SSE,148,0.0,0.0,85,0.00,,OVC,0.00,WeatherDisplay:10.37,2013-08-30 19:24:00,
2013-08-30 15:29:00,73.0,68.2,29.52,SSE,148,0.0,0.0,85,0.00,,OVC,0.00,WeatherDisplay:10.37,2013-08-30 19:29:00,
2013-08-30 15:34:00,73.0,68.2,29.52,SSE,148,0.0,0.0,85,0.00,,OVC,0.00,WeatherDisplay:10.37,2013-08-30 19:34:00,
2013-08-30 15:39:00,73.0,68.2,29.52,SSE,148,0.0,0.0,85,0.00,,OVC,0.00,WeatherDisplay:10.37,2013-08-30 19:39:00,
2013-08-30 15:44:00,73.0,68.2,29.52,SSE,148,0.0,0.0,85,0.00,,OVC,0.00,WeatherDisplay:10.37,2013-08-30 19:44:00,
2013-08-30 15:49:00,73.0,68.2,29.52,SSE,148,0.0,0.0,85,0.00,,OVC,0.00,WeatherDisplay:10.37,2013-08-30 19:49:00,
2013-08-30 15:54:00,73.0,68.2,29.52,SSE,148,0.0,0.0,85,0.00,,OVC,0.00,WeatherDisplay:10.37,2013-08-30 19:54:00,
2013-08-30 15:59:00,73.0,68.2,29.52,SSE,148,0.0,0.0,85,0.00,,OVC,0.00,WeatherDisplay:10.37,2013-08-30 19:59:00,
2013-08-30 16:04:00,73.0,68.2,29.52,SSE,148,0.0,0.0,85,0.00,,OVC,0.00,WeatherDisplay:10.37,2013-08-30 20:04:00,
2013-08-30 16:09:00,73.0,68.2,29.52,SSE,148,0.0,0.0,85,0.00,,OVC,0.00,WeatherDisplay:10.37,2013-08-30 20:09:00,
2013-08-30 16:14:00,73.0,68.2,29.52,SSE,148,0.0,0.0,85,0.00,,OVC,0.00,WeatherDisplay:10.37,2013-08-30 20:14:00,
2013-08-30 16:19:00,73.0,68.2,29.52,SSE,148,0.0,0.0,85,0.00,,OVC,0.00,WeatherDisplay:10.37,2013-08-30 20:19:00,
2013-08-30 16:24:00,73.0,68.2,29.52,SSE,148,0.0,0.0,85,0.00,,OVC,0.00,WeatherDisplay:10.37,2013-08-30 20:24:00,
2013-08-30 16:29:00,73.0,68.2,29.52,SSE,148,0.0,0.0,85,0.00,,OVC,0.00,WeatherDisplay:10.37,2013-08-30 20:29:00,
2013-08-30 16:34:00,73.0,68.2,29.52,SSE,148,0.0,0.0,85,0.00,,OVC,0.00,WeatherDisplay:10.37,2013-08-30 20:34:00,
2013-08-30 16:40:00,73.0,68.2,29.52,SSE,148,0.0,0.0,85,0.00,,OVC,0.00,WeatherDisplay:10.37,2013-08-30 20:40:00,
2013-08-30 16:45:00,73.0,68.2,29.52,SSE,148,0.0,0.0,85,0.00,,OVC,0.00,WeatherDisplay:10.37,2013-08-30 20:45:00,
2013-08-30 16:50:00,73.0,68.2,29.52,SSE,148,0.0,0.0,85,0.00,,OVC,0.00,WeatherDisplay:10.37,2013-08-30 20:50:00,
2013-08-30 16:55:00,73.0,68.2,29.52,SSE,148,0.0,0.0,85,0.00,,OVC,0.00,WeatherDisplay:10.37,2013-08-30 20:55:00,
2013-08-30 17:00:00,73.0,68.2,29.52,SSE,148,0.0,0.0,85,0.00,,OVC,0.00,WeatherDisplay:10.37,2013-08-30 21:00:00,
2013-08-30 17:05:00,73.0,68.2,29.52,SSE,148,0.0,0.0,85,0.00,,OVC,0.00,WeatherDisplay:10.37,2013-08-30 21:05:00,
2013-08-30 17:10:00,73.0,68.2,29.52,SSE,148,0.0,0.0,85,0.00,,OVC,0.00,WeatherDisplay:10.37,2013-08-30 21:10:00,
2013-08-30 17:15:00,73.0,68.2,29.52,SSE,148,0.0,0.0,85,0.00,,OVC,0.00,WeatherDisplay:10.37,2013-08-30 21:15:00,
2013-08-30 17:20:00,73.0,68.2,29.52,SSE,148,0.0,0.0,85,0.00,,OVC,0.00,WeatherDisplay:10.37,2013-08-30 21:20:00,
2013-08-30 17:25:00,73.0,68.2,29.52,SSE,148,0.0,0.0,85,0.00,,OVC,0.00,WeatherDisplay:10.37,2013-08-30 21:25:00,
2013-08-30 17:30:00,73.0,68.2,29.52,SSE,148,0.0,0.0,85,0.00,,OVC,0.00,WeatherDisplay:10.37,2013-08-30 21:30:00,
2013-08-30 17:35:00,73.0,68.2,29.52,SSE,148,0.0,0.0,85,0.00,,OVC,0.00,WeatherDisplay:10.37,2013-08-30 21:35:00,
2013-08-30 17:40:00,73.0,68.2,29.52,SSE,148,0.0,0.0,85,0.00,,OVC,0.00,WeatherDisplay:10.37,2013-08-30 21:40:00,
2013-08-30 17:45:00,73.0,68.2,29.52,SSE,148,0.0,0.0,85,0.00,,OVC,0.00,WeatherDisplay:10.37,2013-08-30 21:45:00,
2013-08-30 17:50:00,73.0,68.2,29.52,SSE,148,0.0,0.0,85,0.00,,OVC,0.00,WeatherDisplay:10.37,2013-08-30 21:50:00,
2013-08-30 17:55:00,73.0,68.2,29.52,SSE,148,0.0,0.0,85,0.00,,OVC,0.00,WeatherDisplay:10.37,2013-08-30 21:55:00,
2013-08-30 18:00:00,73.0,68.2,29.52,SSE,148,0.0,0.0,85,0.00,,OVC,0.00,WeatherDisplay:10.37,2013-08-30 22:00:00,
2013-08-30 18:05:00,73.0,68.2,29.52,SSE,148,0.0,0.0,85,0.00,,OVC,0.00,WeatherDisplay:10.37,2013-08-30 22:05:00,
2013-08-30 18:10:00,73.0,68.2,29.52,SSE,148,0.0,0.0,85,0.00,,OVC,0.00,WeatherDisplay:10.37,2013-08-30 22:10:00,
2013-08-30 18:15:00,73.0,68.2,29.52,SSE,148,0.0,0.0,85,0.00,,OVC,0.00,WeatherDisplay:10.37,2013-08-30 22:15:00,
2013-08-30 18:20:00,73.0,68.2,29.52,SSE,148,0.0,0.0,85,0.00,,OVC,0.00,WeatherDisplay:10.37,2013-08-30 22:20:00,
2013-08-30 18:25:00,73.0,68.2,29.52,SSE,148,0.0,0.0,85,0.00,,OVC,0.00,WeatherDisplay:10.37,2013-08-30 22:25:00,
2013-08-30 18:30:00,73.0,68.2,29.52,SSE,148,0.0,0.0,85,0.00,,OVC,0.00,WeatherDisplay:10.37,2013-08-30 22:30:00,
2013-08-30 18:35:00,73.0,68.2,29.52,SSE,148,0.0,0.0,85,0.00,,OVC,0.00,WeatherDisplay:10.37,2013-08-30 22:35:00,
2013-08-30 18:40:00,73.0,68.2,29.52,SSE,148,0.0,0.0,85,0.00,,OVC,0.00,WeatherDisplay:10.37,2013-08-30 22:40:00,
2013-08-30 18:45:00,73.0,68.2,29.52,SSE,148,0.0,0.0,85,0.00,,OVC,0.00,WeatherDisplay:10.37,2013-08-30 22:45:00,
2013-08-30 18:50:00,73.0,68.2,29.52,SSE,148,0.0,0.0,85,0.00,,OVC,0.00,WeatherDisplay:10.37,2013-08-30 22:50:00,
2013-08-30 18:55:00,73.0,68.2,29.52,SSE,148,0.0,0.0,85,0.00,,OVC,0.00,WeatherDisplay:10.37,2013-08-30 22:55:00,
2013-08-30 19:00:00,73.0,68.2,29.52,SSE,148,0.0,0.0,85,0.00,,OVC,0.00,WeatherDisplay:10.37,2013-08-30 23:00:00,
2013-08-30 19:05:00,73.0,68.2,29.52,SSE,148,0.0,0.0,85,0.00,,OVC,0.00,WeatherDisplay:10.37,2013-08-30 23:05:00,
2013-08-30 19:10:00,73.0,68.2,29.52,SSE,148,0.0,0.0,85,0.00,,OVC,0.00,WeatherDisplay:10.37,2013-08-30 23:10:00,
2013-08-30 19:15:00,73.0,68.2,29.52,SSE,148,0.0,0.0,85,0.00,,OVC,0.00,WeatherDisplay:10.37,2013-08-30 23:15:00,
2013-08-30 19:20:00,73.0,68.2,29.52,SSE,148,0.0,0.0,85,0.00,,OVC,0.00,WeatherDisplay:10.37,2013-08-30 23:20:00,
2013-08-30 19:25:00,73.0,68.2,29.52,SSE,148,0.0,0.0,85,0.00,,OVC,0.00,WeatherDisplay:10.37,2013-08-30 23:25:00,
2013-08-30 19:30:00,73.0,68.2,29.52,SSE,148,0.0,0.0,85,0.00,,OVC,0.00,WeatherDisplay:10.37,2013-08-30 23:30:00,
2013-08-30 19:35:00,73.0,68.2,29.52,SSE,148,0.0,0.0,85,0.00,,OVC,0.00,WeatherDisplay:10.37,2013-08-30 23:35:00,
2013-08-30 19:40:00,73.0,68.2,29.52,SSE,148,0.0,0.0,85,0.00,,OVC,0.00,WeatherDisplay:10.37,2013-08-30 23:40:00,
2013-08-30 19:45:00,73.0,68.2,29.52,SSE,148,0.0,0.0,85,0.00,,OVC,0.00,WeatherDisplay:10.37,2013-08-30 23:45:00,
2013-08-30 19:50:00,73.0,68.2,29.52,SSE,148,0.0,0.0,85,0.00,,OVC,0.00,WeatherDisplay:10.37,2013-08-30 23:50:00,
2013-08-30 19:55:00,73.0,68.2,29.52,SSE,148,0.0,0.0,85,0.00,,OVC,0.00,WeatherDisplay:10.37,2013-08-30 23:55:00,
2013-08-30 20:00:00,73.0,68.2,29.52,SSE,148,0.0,0.0,85,0.00,,OVC,0.00,WeatherDisplay:10.37,2013-08-31 00:00:00,
2013-08-30 20:05:00,73.0,68.2,29.52,SSE,148,0.0,0.0,85,0.00,,OVC,0.00,WeatherDisplay:10.37,2013-08-31 00:05:00,
2013-08-30 20:10:00,73.0,68.2,29.52,SSE,148,0.0,0.0,85,0.00,,OVC,0.00,WeatherDisplay:10.37,2013-08-31 00:10:00,
2013-08-30 20:15:00,73.0,68.2,29.52,SSE,148,0.0,0.0,85,0.00,,OVC,0.00,WeatherDisplay:10.37,2013-08-31 00:15:00,
2013-08-30 20:20:00,73.0,68.2,29.52,SSE,148,0.0,0.0,85,0.00,,OVC,0.00,WeatherDisplay:10.37,2013-08-31 00:20:00,
2013-08-30 20:25:00,73.0,68.2,29.52,SSE,148,0.0,0.0,85,0.00,,OVC,0.00,WeatherDisplay:10.37,2013-08-31 00:25:00,
2013-08-30 20:30:00,73.0,68.2,29.52,SSE,148,0.0,0.0,85,0.00,,OVC,0.00,WeatherDisplay:10.37,2013-08-31 00:30:00,
2013-08-30 20:35:00,73.0,68.2,29.52,SSE,148,0.0,0.0,85,0.00,,OVC,0.00,WeatherDisplay:10.37,2013-08-31 00:35:00,
2013-08-30 20:40:00,73.0,68.2,29.52,SSE,148,0.0,0.0,85,0.00,,OVC,0.00,WeatherDisplay:10.37,2013-08-31 00:40:00,
2013-08-30 20:45:00,73.0,68.2,29.52,SSE,148,0.0,0.0,85,0.00,,OVC,0.00,WeatherDisplay:10.37,2013-08-31 00:45:00,
2013-08-30 20:50:00,73.0,68.2,29.52,SSE,148,0.0,0.0,85,0.00,,OVC,0.00,WeatherDisplay:10.37,2013-08-31 00:50:00,
2013-08-30 20:55:00,73.0,68.2,29.52,SSE,148,0.0,0.0,85,0.00,,OVC,0.00,WeatherDisplay:10.37,2013-08-31 00:55:00,
2013-08-30 21:00:00,73.0,68.2,29.52,SSE,148,0.0,0.0,85,0.00,,OVC,0.00,WeatherDisplay:10.37,2013-08-31 01:00:00,
2013-08-30 21:05:00,73.0,68.2,29.52,SSE,148,0.0,0.0,85,0.00,,OVC,0.00,WeatherDisplay:10.37,2013-08-31 01:05:00,
2013-08-30 21:10:00,73.0,68.2,29.52,SSE,148,0.0,0.0,85,0.00,,OVC,0.00,WeatherDisplay:10.37,2013-08-31 01:10:00,
2013-08-30 21:15:00,73.0,68.2,29.52,SSE,148,0.0,0.0,85,0.00,,OVC,0.00,WeatherDisplay:10.37,2013-08-31 01:15:00,
2013-08-30 21:20:00,73.0,68.2,29.52,SSE,148,0.0,0.0,85,0.00,,OVC,0.00,WeatherDisplay:10.37,2013-08-31 01:20:00,
2013-08-30 21:25:00,73.0,68.2,29.52,SSE,148,0.0,0.0,85,0.00,,OVC,0.00,WeatherDisplay:10.37,2013-08-31 01:25:00,
2013-08-30 21:30:00,73.0,68.2,29.52,SSE,148,0.0,0.0,85,0.00,,OVC,0.00,WeatherDisplay:10.37,2013-08-31 01:30:00,
2013-08-30 21:35:00,73.0,68.2,29.52,SSE,148,0.0,0.0,85,0.00,,OVC,0.00,WeatherDisplay:10.37,2013-08-31 01:35:00,
2013-08-30 21:40:00,73.0,68.2,29.52,SSE,148,0.0,0.0,85,0.00,,OVC,0.00,WeatherDisplay:10.37,2013-08-31 01:40:00,
2013-08-30 21:45:00,73.0,68.2,29.52,SSE,148,0.0,0.0,85,0.00,,OVC,0.00,WeatherDisplay:10.37,2013-08-31 01:45:00,
2013-08-30 21:50:00,73.0,68.2,29.52,SSE,148,0.0,0.0,85,0.00,,OVC,0.00,WeatherDisplay:10.37,2013-08-31 01:50:00,
2013-08-30 21:55:00,73.0,68.2,29.52,SSE,148,0.0,0.0,85,0.00,,OVC,0.00,WeatherDisplay:10.37,2013-08-31 01:55:00,
2013-08-30 22:00:00,73.0,68.2,29.52,SSE,148,0.0,0.0,85,0.00,,OVC,0.00,WeatherDisplay:10.37,2013-08-31 02:00:00,
2013-08-30 22:05:00,73.0,68.2,29.52,SSE,148,0.0,0.0,85,0.00,,OVC,0.00,WeatherDisplay:10.37,2013-08-31 02:05:00,
2013-08-30 22:10:00,73.0,68.2,29.52,SSE,148,0.0,0.0,85,0.00,,OVC,0.00,WeatherDisplay:10.37,2013-08-31 02:10:00,
2013-08-30 22:15:00,73.0,68.2,29.52,SSE,148,0.0,0.0,85,0.00,,OVC,0.00,WeatherDisplay:10.37,2013-08-31 02:15:00,
2013-08-30 22:20:00,73.0,68.2,29.52,SSE,148,0.0,0.0,85,0.00,,OVC,0.00,WeatherDisplay:10.37,2013-08-31 02:20:00,
2013-08-30 22:25:00,73.0,68.2,29.52,SSE,148,0.0,0.0,85,0.00,,OVC,0.00,WeatherDisplay:10.37,2013-08-31 02:25:00,
2013-08-30 22:30:00,73.0,68.2,29.52,SSE,148,0.0,0.0,85,0.00,,OVC,0.00,WeatherDisplay:10.37,2013-08-31 02:30:00,
2013-08-30 22:35:00,73.0,68.2,29.52,SSE,148,0.0,0.0,85,0.00,,OVC,0.00,WeatherDisplay:10.37,2013-08-31 02:35:00,
2013-08-30 22:40:00,73.0,68.2,29.52,SSE,148,0.0,0.0,85,0.00,,OVC,0.00,WeatherDisplay:10.37,2013-08-31 02:40:00,
2013-08-30 22:45:00,73.0,68.2,29.52,SSE,148,0.0,0.0,85,0.00,,OVC,0.00,WeatherDisplay:10.37,2013-08-31 02:45:00,
2013-08-30 22:50:00,73.0,68.2,29.52,SSE,148,0.0,0.0,85,0.00,,OVC,0.00,WeatherDisplay:10.37,2013-08-31 02:50:00,
2013-08-30 22:55:00,73.0,68.2,29.52,SSE,148,0.0,0.0,85,0.00,,OVC,0.00,WeatherDisplay:10.37,2013-08-31 02:55:00,
2013-08-30 23:00:00,73.0,68.2,29.52,SSE,148,0.0,0.0,85,0.00,,OVC,0.00,WeatherDisplay:10.37,2013-08-31 03:00:00,
2013-08-30 23:05:00,73.0,68.2,29.52,SSE,148,0.0,0.0,85,0.00,,OVC,0.00,WeatherDisplay:10.37,2013-08-31 03:05:00,
2013-08-30 23:10:00,73.0,68.2,29.52,SSE,148,0.0,0.0,85,0.00,,OVC,0.00,WeatherDisplay:10.37,2013-08-31 03:10:00,
2013-08-30 23:15:00,73.0,68.2,29.52,SSE,148,0.0,0.0,85,0.00,,OVC,0.00,WeatherDisplay:10.37,2013-08-31 03:15:00,
2013-08-30 23:20:00,73.0,68.2,29.52,SSE,148,0.0,0.0,85,0.00,,OVC,0.00,WeatherDisplay:10.37,2013-08-31 03:20:00,
2013-08-30 23:25:00,73.0,68.2,29.52,SSE,148,0.0,0.0,85,0.00,,OVC,0.00,WeatherDisplay:10.37,2013-08-31 03:25:00,
2013-08-30 23:30:00,73.0,68.2,29.52,SSE,148,0.0,0.0,85,0.00,,OVC,0.00,WeatherDisplay:10.37,2013-08-31 03:30:00,
2013-08-30 23:35:00,73.0,68.2,29.52,SSE,148,0.0,0.0,85,0.00,,OVC,0.00,WeatherDisplay:10.37,2013-08-31 03:35:00,
2013-08-30 23:40:00,73.0,68.2,29.52,SSE,148,0.0,0.0,85,0.00,,OVC,0.00,WeatherDisplay:10.37,2013-08-31 03:40:00,
2013-08-30 23:45:00,73.0,68.2,29.52,SSE,148,0.0,0.0,85,0.00,,OVC,0.00,WeatherDisplay:10.37,2013-08-31 03:45:00,
2013-08-30 23:50:00,73.0,68.2,29.52,SSE,148,0.0,0.0,85,0.00,,OVC,0.00,WeatherDisplay:10.37,2013-08-31 03:50:00,
2013-08-30 23:55:00,73.0,68.2,29.52,SSE,148,0.0,0.0,85,0.00,,OVC,0.00,WeatherDisplay:10.37,2013-08-31 03:55:00,